Weather History for Clinton, OK

Change the Weather History Date:

Thursday, May 23, 2013

  Actual Average (KCSM) Record (KCSM)
Temperature  
Mean Temperature 71 °F -  
Max Temperature 80 °F 81 °F 106 °F (2000)
Min Temperature 62 °F 57 °F 55 °F (2001)
Cooling Degree Days 6    
Growing Degree Days 21 (Base 50)    
Moisture  
Dew Point 55 °F    
Average Humidity 64    
Maximum Humidity 77    
Minimum Humidity 44    
Precipitation  
Precipitation 0.00 in - - ()
Sea Level Pressure  
Sea Level Pressure 30.00 in    
Wind  
Wind Speed 12 mph (East)    
Max Wind Speed 22 mph    
Max Gust Speed 29 mph    
Visibility 10 miles    
Events      
Averages and records for this station are not official NWS values.
T = Trace of Precipitation, MM = Missing Value Source: NWS Daily Summary

Daily Weather History Graph

Daily Weather History Graph

Search for Another Location

Airport:

Trip Planner

Search our weather history database for the weather conditions in past years. The results will help you decide how hot, cold, wet, or windy it might be!

Date:

Astronomy

May. 23, 2013 Rise Set
Actual Time 6:25 AM CDT 8:39 PM CDT
Civil Twilight 5:56 AM CDT 9:08 PM CDT
Nautical Twilight 5:21 AM CDT 9:44 PM CDT
Astronomical Twilight 4:42 AM CDT 10:23 PM CDT
Moon 7:16 PM CDT (5/23) 5:07 AM CDT (5/23)
Length of Visible Light 15h 12m
Length of Day
14h 14m
Waxing Gibbous, 97% of the Moon is Illuminated
May 23
Waxing Gibbous
May 24
Full
May 31
Last Quarter
Jun 8
New
Jun 16
First Quarter

Hourly Weather History & Observations

Time (CDT) Temp. Heat Index Dew Point Humidity Pressure Visibility Wind Dir Wind Speed Gust Speed Precip Events Conditions
12:15 AM 68.0 °F - 51.8 °F 56% 29.90 in 10.0 mi ESE 11.5 mph - N/A   Clear
12:35 AM 68.0 °F - 51.8 °F 56% 29.91 in 10.0 mi ESE 10.4 mph - N/A   Clear
12:55 AM 68.0 °F - 51.8 °F 56% 29.92 in 10.0 mi ESE 11.5 mph - N/A   Clear
1:15 AM 66.2 °F - 51.8 °F 60% 29.92 in 10.0 mi ESE 11.5 mph - N/A   Clear
1:35 AM 64.4 °F - 51.8 °F 64% 29.92 in 10.0 mi SE 9.2 mph - N/A   Clear
1:55 AM 64.4 °F - 51.8 °F 64% 29.92 in 10.0 mi SE 10.4 mph - N/A   Clear
2:15 AM 64.4 °F - 51.8 °F 64% 29.92 in 10.0 mi ESE 10.4 mph - N/A   Clear
2:35 AM 64.4 °F - 51.8 °F 64% 29.93 in 10.0 mi ESE 8.1 mph - N/A   Clear
2:55 AM 64.4 °F - 51.8 °F 64% 29.93 in 10.0 mi SE 10.4 mph - N/A   Clear
3:15 AM 64.4 °F - 51.8 °F 64% 29.93 in 10.0 mi SE 10.4 mph - N/A   Clear
3:35 AM 64.4 °F - 51.8 °F 64% 29.93 in 10.0 mi ESE 10.4 mph - N/A   Clear
3:55 AM 64.4 °F - 51.8 °F 64% 29.93 in 10.0 mi ESE 9.2 mph - N/A   Clear
4:15 AM 64.4 °F - 51.8 °F 64% 29.92 in 10.0 mi SE 8.1 mph - N/A   Clear
4:35 AM 62.6 °F - 51.8 °F 68% 29.93 in 10.0 mi ESE 6.9 mph - N/A   Clear
4:55 AM 62.6 °F - 53.6 °F 72% 29.94 in 10.0 mi East 8.1 mph - N/A   Clear
5:15 AM 64.4 °F - 53.6 °F 68% 29.94 in 10.0 mi ENE 9.2 mph - N/A   Clear
5:35 AM 62.6 °F - 53.6 °F 72% 29.94 in 10.0 mi East 10.4 mph - N/A   Clear
5:55 AM 62.6 °F - 53.6 °F 72% 29.94 in 10.0 mi East 11.5 mph - N/A   Clear
6:15 AM 62.6 °F - 53.6 °F 72% 29.94 in 10.0 mi East 10.4 mph - N/A   Clear
6:35 AM 62.6 °F - 55.4 °F 77% 29.94 in 10.0 mi East 6.9 mph - N/A   Clear
6:55 AM 64.4 °F - 55.4 °F 73% 29.94 in 10.0 mi ESE 6.9 mph - N/A   Clear
7:15 AM 64.4 °F - 55.4 °F 73% 29.96 in 10.0 mi East 10.4 mph - N/A   Clear
7:35 AM 64.4 °F - 55.4 °F 73% 29.97 in 10.0 mi East 10.4 mph - N/A   Scattered Clouds
7:55 AM 64.4 °F - 55.4 °F 73% 29.98 in 10.0 mi East 10.4 mph - N/A   Overcast
8:15 AM 64.4 °F - 57.2 °F 77% 29.99 in 10.0 mi East 6.9 mph - N/A   Overcast
8:35 AM 69.8 °F - 59.0 °F 68% 29.99 in 10.0 mi ESE 13.8 mph 21.9 mph N/A   Overcast
8:55 AM 71.6 °F - 60.8 °F 69% 30.01 in 10.0 mi ESE 16.1 mph 21.9 mph N/A   Overcast
9:15 AM 69.8 °F - 59.0 °F 68% 30.02 in 10.0 mi ESE 15.0 mph 21.9 mph N/A   Overcast
9:35 AM 69.8 °F - 57.2 °F 64% 30.03 in 10.0 mi East 13.8 mph 17.3 mph N/A   Overcast
9:55 AM 68.0 °F - 53.6 °F 60% 30.03 in 10.0 mi East 12.7 mph - N/A   Overcast
10:15 AM 68.0 °F - 55.4 °F 64% 30.04 in 10.0 mi East 9.2 mph 18.4 mph N/A   Mostly Cloudy
10:35 AM 68.0 °F - 55.4 °F 64% 30.04 in 10.0 mi East 10.4 mph - N/A   Overcast
10:55 AM 68.0 °F - 55.4 °F 64% 30.05 in 10.0 mi East 16.1 mph - N/A   Overcast
11:15 AM 68.0 °F - 55.4 °F 64% 30.05 in 10.0 mi East 16.1 mph 21.9 mph N/A   Overcast
11:35 AM 69.8 °F - 55.4 °F 60% 30.05 in 10.0 mi East 12.7 mph - N/A   Overcast
11:55 AM 69.8 °F - 55.4 °F 60% 30.06 in 10.0 mi East 12.7 mph 23.0 mph N/A   Overcast
12:15 PM 69.8 °F - 55.4 °F 60% 30.06 in 10.0 mi East 10.4 mph - N/A   Mostly Cloudy
12:35 PM 71.6 °F - 53.6 °F 53% 30.06 in 10.0 mi East 13.8 mph - N/A   Mostly Cloudy
12:55 PM 73.4 °F - 53.6 °F 50% 30.06 in 10.0 mi East 12.7 mph - N/A   Scattered Clouds
1:15 PM 77.0 °F - 53.6 °F 44% 30.05 in 10.0 mi East 12.7 mph 18.4 mph N/A   Clear
1:35 PM 77.0 °F - 53.6 °F 44% 30.04 in 10.0 mi East 13.8 mph 19.6 mph N/A   Clear
1:55 PM 77.0 °F - 53.6 °F 44% 30.04 in 10.0 mi East 11.5 mph 19.6 mph N/A   Clear
2:15 PM 77.0 °F - 55.4 °F 47% 30.05 in 10.0 mi ENE 15.0 mph 24.2 mph N/A   Clear
2:35 PM 77.0 °F - 57.2 °F 50% 30.05 in 10.0 mi East 13.8 mph 20.7 mph N/A   Clear
2:55 PM 77.0 °F - 57.2 °F 50% 30.05 in 10.0 mi East 18.4 mph 23.0 mph N/A   Clear
3:15 PM 77.0 °F - 59.0 °F 54% 30.04 in 10.0 mi ENE 18.4 mph 21.9 mph N/A   Clear
3:35 PM 77.0 °F - 59.0 °F 54% 30.03 in 10.0 mi ENE 17.3 mph 21.9 mph N/A   Clear
3:55 PM 77.0 °F - 59.0 °F 54% 30.03 in 10.0 mi ENE 13.8 mph 18.4 mph N/A   Clear
4:15 PM 80.6 °F 81.1 °F 59.0 °F 48% 30.02 in 10.0 mi ENE 16.1 mph 20.7 mph N/A   Clear
4:35 PM 78.8 °F - 59.0 °F 51% 30.01 in 10.0 mi ENE 18.4 mph 24.2 mph N/A   Clear
4:55 PM 78.8 °F - 59.0 °F 51% 30.02 in 10.0 mi ENE 13.8 mph - N/A   Clear
5:15 PM 78.8 °F - 59.0 °F 51% 30.03 in 10.0 mi East 15.0 mph - N/A   Clear
5:35 PM 78.8 °F - 55.4 °F 44% 30.02 in 10.0 mi ESE 17.3 mph 25.3 mph N/A   Clear
5:55 PM 78.8 °F - 59.0 °F 51% 30.03 in 10.0 mi East 13.8 mph 21.9 mph N/A   Clear
6:15 PM 77.0 °F - 55.4 °F 47% 30.03 in 10.0 mi ENE 17.3 mph 21.9 mph N/A   Clear
6:35 PM 69.8 °F - 57.2 °F 64% 30.02 in 10.0 mi ENE 20.7 mph - N/A   Clear
6:55 PM 68.0 °F - 55.4 °F 64% 30.02 in 10.0 mi ENE 17.3 mph 28.8 mph N/A   Clear
7:15 PM 68.0 °F - 57.2 °F 68% 30.02 in 10.0 mi ENE 21.9 mph 26.5 mph N/A   Clear
7:35 PM 66.2 °F - 57.2 °F 73% 30.01 in 10.0 mi ENE 19.6 mph 26.5 mph N/A   Clear
7:55 PM 64.4 °F - 55.4 °F 73% 30.02 in 10.0 mi ENE 20.7 mph - N/A   Clear
8:15 PM 64.4 °F - 55.4 °F 73% 30.02 in 10.0 mi ENE 16.1 mph 24.2 mph N/A   Clear
8:35 PM 62.6 °F - 55.4 °F 77% 30.02 in 10.0 mi ENE 18.4 mph 25.3 mph N/A   Clear
8:55 PM 62.6 °F - 55.4 °F 77% 30.03 in 10.0 mi ENE 15.0 mph 20.7 mph N/A   Clear
9:15 PM 62.6 °F - 55.4 °F 77% 30.03 in 10.0 mi ENE 15.0 mph 19.6 mph N/A   Clear
9:35 PM 62.6 °F - 55.4 °F 77% 30.04 in 10.0 mi ENE 16.1 mph - N/A   Clear
9:55 PM 62.6 °F - 55.4 °F 77% 30.05 in 10.0 mi ENE 15.0 mph 23.0 mph N/A   Clear
10:15 PM 62.6 °F - 55.4 °F 77% 30.06 in 10.0 mi ENE 15.0 mph 19.6 mph N/A   Clear
10:35 PM 62.6 °F - 55.4 °F 77% 30.08 in 10.0 mi East 17.3 mph 20.7 mph N/A   Clear
10:55 PM 62.6 °F - 55.4 °F 77% 30.09 in 10.0 mi East 16.1 mph 24.2 mph N/A   Clear
11:15 PM 62.6 °F - 55.4 °F 77% 30.10 in 10.0 mi East 17.3 mph 28.8 mph N/A   Clear
11:35 PM 62.6 °F - 55.4 °F 77% 30.10 in 10.0 mi East 16.1 mph 20.7 mph N/A   Clear
11:55 PM 62.6 °F - 55.4 °F 77% 30.10 in 10.0 mi East 10.4 mph 19.6 mph N/A   Clear